Temperature
24 23 23 22 22 22 21 21 21 21 21 21 20 19 18 18 17 17 17 17 17 16 16 15 15 14 13 13 12 12 12 11 11 11 11 11 11 11 11 11 11 11 11 12
24 23 23 23 23 22 22 21 21 21 21 21 20 19 18 18 18 18 17 17 17 16 16 15 15 14 14 13 13 12 12 11 11 11 11 11 11 11 11 11 11 11 11 11
25 24 23 23 24 23 22 22 22 21 21 21 20 19 19 18 18 18 17 17 16 16 16 16 15 15 14 13 13 12 12 11 11 11 11 10 10 10 10 10 10 10 10 11
24 25 24 24 25 24 23 23 23 22 22 21 20 19 19 18 18 18 17 17 16 16 16 16 15 15 14 14 13 12 12 11 11 11 10 10 10 10 10 10 10 10 10 10
24 24 25 23 24 23 22 22 24 23 22 21 20 19 19 18 18 18 17 17 16 16 16 16 15 15 15 14 13 12 12 11 11 11 10 10 10 10 10 9 9 9 9 9
23 23 24 24 24 23 23 22 24 23 22 21 20 19 19 19 18 18 17 16 16 16 16 15 15 15 15 14 13 12 12 11 11 11 11 10 10 10 10 9 9 9 9 9
22 23 25 24 23 23 21 23 24 23 22 21 20 20 20 19 18 17 17 16 16 16 15 15 15 15 14 14 13 12 12 11 11 11 11 10 10 10 10 9 9 9 9 9
24 24 24 23 22 23 24 24 24 23 22 21 21 20 19 18 18 17 17 16 16 16 15 15 15 14 14 14 13 12 12 11 11 11 11 10 10 10 10 10 9 9 9 9
25 25 23 22 23 24 24 24 24 23 22 21 21 20 19 18 18 17 17 16 16 16 15 15 15 15 14 14 13 12 12 12 11 11 11 11 10 10 10 10 10 9 9 9
25 26 26 24 23 23 23 23 23 23 22 21 21 20 19 18 18 17 17 17 16 16 16 16 15 15 14 14 13 13 12 12 12 11 11 11 11 10 10 10 10 10 9 9
25 25 26 26 24 23 23 22 22 22 22 21 20 20 19 18 18 18 17 17 16 16 16 16 15 15 14 14 14 13 13 13 12 12 11 11 11 11 10 10 10 10 10 10
24 26 26 26 25 23 23 22 22 22 21 21 20 20 19 19 18 18 17 17 17 16 16 16 16 15 15 14 14 14 14 14 13 12 12 12 11 11 11 10 10 10 10 10
26 26 25 24 24 23 22 22 21 21 21 21 20 20 19 19 18 18 18 17 17 17 17 16 16 15 15 15 14 14 14 14 13 13 12 12 12 11 11 11 11 10 10 10
25 24 24 24 23 23 23 22 21 21 21 20 20 19 19 19 19 18 18 17 17 17 17 16 16 15 15 15 15 14 14 14 13 13 12 12 12 12 12 11 11 11 11 11
23 23 23 23 23 23 22 22 21 21 21 20 20 19 19 19 18 18 18 17 17 17 17 16 16 16 15 15 15 14 14 14 13 13 13 12 12 12 12 12 11 11 11 11
19 21 21 21 21 22 22 21 21 21 21 20 20 19 19 19 18 18 18 17 17 17 17 17 16 16 16 15 15 15 14 14 14 13 13 13 13 12 12 12 12 12 11 11
15 16 17 18 19 20 20 21 21 21 21 20 20 20 19 19 18 18 18 17 17 17 17 16 16 16 16 16 15 15 14 14 14 14 13 13 13 13 13 13 12 12 12 12
13 13 14 15 16 17 18 19 20 21 21 21 20 20 19 19 18 18 17 17 17 16 16 16 16 16 16 16 15 15 14 14 14 14 13 13 13 13 13 13 13 12 12 12
11 12 12 13 14 15 16 17 19 20 20 20 20 20 19 19 18 18 17 17 17 16 16 16 16 16 16 16 16 15 14 14 14 13 13 13 13 13 13 13 13 13 12 12
10 11 11 12 12 13 14 15 17 18 19 20 20 20 20 19 18 18 17 17 17 17 16 16 16 16 16 15 15 15 15 14 14 13 13 13 13 13 13 13 13 13 13 12
10 10 10 10 11 12 13 14 16 17 18 19 19 20 19 19 18 18 17 17 17 17 16 16 16 16 16 15 15 15 15 14 14 13 13 13 13 13 13 13 13 13 13 13
9 9 9 9 10 11 12 13 14 15 17 18 18 19 19 19 18 18 17 17 17 17 16 16 16 15 15 15 15 15 15 14 14 14 13 13 13 13 13 13 13 13 13 13
8 8 8 8 9 9 10 11 12 13 15 16 17 17 18 18 18 18 17 17 17 17 16 16 16 15 15 15 15 15 15 14 14 14 14 13 13 13 13 13 13 13 13 13
7 7 7 7 8 8 8 9 10 11 12 14 15 15 16 17 17 17 17 17 17 16 16 16 15 15 15 15 15 15 15 14 14 14 14 13 13 13 13 13 13 13 13 13
6 6 6 6 6 6 7 7 8 9 10 11 12 13 14 15 15 16 16 16 16 16 16 15 15 15 15 15 15 15 14 14 14 14 14 13 13 13 13 13 13 13 13 13
6 5 5 5 5 5 5 6 6 6 7 8 10 10 11 12 13 14 15 15 15 15 15 15 15 15 14 14 14 15 14 14 14 14 13 13 13 13 13 13 13 13 13 12
6 5 5 5 5 5 5 5 5 5 5 6 7 8 8 9 10 11 12 13 13 14 14 14 14 14 14 14 14 14 14 14 14 13 13 13 13 13 13 13 13 13 13 12
Wind_Speed
2 1 2 3 4 4 6 7 6 5 2 2 6 5 3 3 2 3 3 4 5 4 4 3 2 3 4 4 4 5 6 7 7 7 7 7 8 8 8 9 10 9 9 9
6 5 5 9 9 8 7 7 6 4 3 3 6 5 4 4 2 2 3 5 5 5 5 4 3 4 4 4 4 5 6 6 6 7 7 8 8 8 8 8 9 9 9 8
5 6 6 8 8 10 8 6 6 6 2 8 6 6 5 3 2 2 2 4 5 5 5 4 4 4 4 3 4 5 6 6 6 7 7 7 8 8 8 7 7 8 8 8
7 5 5 5 4 2 6 8 7 6 3 7 6 5 4 4 3 2 1 3 4 5 4 4 5 4 2 3 5 6 6 5 6 6 7 6 6 7 7 6 6 6 7 7
4 6 5 6 4 3 4 7 9 10 8 8 7 6 7 8 5 2 2 2 3 4 5 5 6 5 4 4 6 6 5 5 6 6 6 6 6 6 5 5 5 5 5 6
5 5 3 7 8 5 3 5 8 11 11 10 9 7 7 10 8 5 3 2 3 4 4 5 5 4 3 4 6 6 5 6 6 5 5 6 6 5 5 4 5 4 4 5
6 6 2 8 9 6 3 4 4 9 11 12 11 5 5 11 8 6 4 2 1 3 2 3 4 4 4 6 6 6 5 5 5 5 4 4 5 5 5 5 5 5 4 5
4 5 0 9 7 5 4 2 1 6 9 11 9 7 8 8 8 7 6 4 2 2 1 1 2 4 3 5 4 4 3 3 3 4 4 4 3 3 4 5 5 5 5 5
2 2 6 8 8 6 4 5 3 5 7 10 10 9 9 8 7 7 6 5 4 2 2 2 2 2 3 3 3 3 3 1 0 1 2 3 4 5 5 5 5 5 5 5
5 5 5 11 11 8 6 6 5 4 8 10 10 9 9 8 8 7 6 5 5 4 5 2 3 2 0 1 2 3 3 2 2 0 2 3 3 4 4 5 5 6 6 6
6 8 7 6 9 9 8 7 7 5 8 10 10 10 10 9 8 8 7 6 5 5 3 2 2 3 3 1 3 4 4 5 4 2 2 1 2 2 3 3 3 2 4 5
6 5 5 4 3 6 8 9 9 8 8 9 10 10 10 10 8 8 7 7 7 6 4 5 4 3 4 3 3 5 3 2 2 2 2 1 2 2 2 2 3 2 2 3
6 6 5 5 4 3 7 9 10 9 9 9 10 10 10 9 8 8 8 8 8 8 7 6 5 3 4 4 4 5 4 1 2 1 1 2 2 3 3 2 2 2 2 1
5 6 7 7 6 6 7 8 9 10 10 9 10 10 10 9 9 9 9 8 8 7 7 6 5 5 4 4 4 5 5 1 2 2 2 2 1 1 1 2 3 3 4 5
13 11 8 6 8 6 4 6 8 10 11 11 10 10 11 11 10 10 9 9 8 8 8 7 7 6 5 5 4 5 4 2 2 2 2 3 2 2 2 2 2 3 4 3
17 13 11 9 9 9 7 8 9 10 11 11 11 12 11 11 10 9 9 9 9 9 9 8 8 7 7 6 5 4 3 2 2 2 3 4 4 4 3 3 3 2 3 4
17 17 16 15 13 12 11 9 10 10 11 12 12 12 12 11 11 10 10 10 10 9 9 9 8 8 8 7 6 5 4 5 7 4 4 5 4 4 3 3 3 3 3 5
14 15 16 17 16 16 15 14 11 11 11 11 11 12 13 14 13 12 11 10 10 9 9 8 8 8 8 8 6 5 5 4 5 6 5 5 4 3 3 3 3 4 4 5
16 17 17 17 17 17 16 16 15 13 11 11 11 13 13 13 12 12 12 12 12 11 10 9 11 10 9 10 8 4 4 4 4 5 5 5 4 4 4 4 4 4 5 6
16 16 17 18 18 17 16 16 16 15 12 10 10 11 13 13 12 12 12 12 11 9 9 10 10 9 8 10 11 6 6 6 5 5 4 4 5 5 5 5 5 5 4 5
16 17 18 18 18 18 18 17 15 14 13 10 10 11 11 11 12 12 11 11 10 11 11 13 10 9 8 8 12 8 7 6 6 5 5 5 5 5 5 5 5 5 5 5
15 15 17 18 18 18 18 18 17 16 14 11 9 9 9 10 11 11 12 9 8 13 11 9 8 10 12 11 8 8 7 7 6 5 5 5 4 5 5 5 5 4 4 4
14 14 15 16 17 17 18 18 19 18 16 13 10 8 8 8 7 9 9 8 8 13 11 9 12 15 16 11 8 8 8 8 7 6 6 6 5 5 5 5 4 4 4 4
13 14 15 15 15 15 17 19 19 17 17 15 12 10 7 5 5 6 6 9 13 14 10 12 18 18 17 10 8 8 9 8 8 7 7 6 6 6 5 5 4 4 4 4
12 12 13 14 13 12 14 16 17 17 17 15 17 16 11 6 4 3 3 5 10 13 9 11 17 18 14 9 9 9 8 8 8 8 7 6 6 6 5 4 4 4 4 5
10 9 9 10 9 9 10 11 11 12 13 14 15 15 13 10 9 7 4 1 5 9 7 6 9 12 10 9 9 9 8 8 8 8 8 7 7 7 6 6 7 5 5 5
9 8 6 6 6 7 8 9 9 10 11 12 14 14 14 13 12 11 10 6 2 2 3 4 6 8 8 9 9 8 8 7 7 8 8 8 7 7 7 8 7 6 5 5
Wind_Direction
65 41 307 280 259 245 263 296 320 17 20 150 154 165 178 198 244 305 344 7 14 18 30 5 56 68 56 28 17 25 33 31 21 26 23 19 23 23 23 22 26 23 30 34
236 205 251 264 250 237 247 261 274 284 267 134 129 155 193 211 228 304 359 14 9 12 27 358 44 67 64 38 29 38 43 37 28 31 25 20 23 21 24 31 25 22 26 32
293 163 258 262 234 217 224 229 240 253 225 142 167 193 204 210 226 287 7 15 9 5 15 347 42 65 77 52 49 49 49 44 33 35 32 27 24 19 20 31 27 23 23 25
287 262 277 89 76 160 223 234 226 236 167 160 186 178 187 214 230 252 38 25 13 358 351 7 40 38 87 101 72 58 46 49 48 41 31 26 25 24 21 20 22 22 22 20
292 308 287 140 138 162 220 256 225 213 197 178 178 179 207 202 200 200 68 37 15 353 350 27 34 13 20 76 80 67 44 40 50 45 32 22 20 20 21 14 13 23 24 24
295 296 323 106 123 137 223 268 211 194 189 177 179 214 217 173 168 172 135 64 10 338 4 26 18 356 1 63 76 69 51 41 45 49 41 29 13 11 13 16 9 15 24 31
263 278 327 117 130 152 223 6 111 177 180 178 192 215 132 142 153 153 141 133 294 310 35 29 356 346 23 58 67 72 62 45 37 34 51 57 15 7 17 8 0 10 24 32
233 257 143 138 157 203 268 24 191 183 180 180 189 169 135 146 150 160 167 169 213 301 11 51 358 351 40 77 81 93 90 62 51 46 30 40 18 10 17 3 6 14 18 24
306 5 127 183 206 234 283 296 257 183 179 178 184 176 162 165 167 177 186 175 181 224 278 261 114 44 19 91 110 134 135 113 40 101 102 45 17 18 19 16 11 8 13 16
288 277 218 201 215 237 241 257 275 196 179 181 187 183 172 176 178 182 195 187 179 211 235 231 124 134 13 106 194 205 181 183 230 332 74 76 55 30 35 25 13 5 8 8
261 271 262 206 200 220 227 228 243 224 191 186 187 189 182 186 189 187 190 184 186 218 229 245 204 186 166 191 260 246 209 191 198 146 100 60 101 67 59 82 74 26 3 359
255 326 350 7 143 203 223 221 226 223 205 191 190 194 191 193 192 188 189 189 191 198 202 240 235 194 165 171 258 276 268 179 151 154 156 184 165 141 64 110 148 110 42 14
280 317 327 321 314 248 236 229 222 220 212 200 197 197 198 196 189 186 192 198 197 192 195 222 231 216 180 169 231 271 279 236 157 152 173 218 207 185 179 187 218 262 268 334
340 320 298 296 290 259 242 236 226 220 216 208 202 199 200 202 197 192 196 200 200 197 194 206 217 221 189 173 218 254 267 247 161 183 230 258 247 229 182 168 187 206 220 234
344 331 317 315 311 299 267 245 233 224 218 213 206 203 202 205 205 199 195 196 199 201 198 202 209 211 185 182 222 248 250 217 184 219 226 245 244 234 219 202 198 166 153 190
341 344 347 333 313 298 277 254 243 236 224 217 212 209 207 206 206 201 195 194 201 206 203 202 206 199 180 183 214 246 250 194 188 235 256 243 226 226 226 215 208 181 156 160
359 351 342 332 322 312 297 274 255 248 237 224 217 210 209 207 207 208 202 198 203 208 203 202 201 187 174 180 205 223 229 198 193 218 247 255 244 232 225 210 209 185 150 145
357 347 341 334 326 318 309 299 279 256 247 236 218 211 211 211 211 209 206 202 203 207 212 206 188 177 175 182 203 222 230 212 194 209 228 240 242 244 240 223 212 186 158 161
2 354 348 340 332 323 313 305 297 282 258 242 226 217 215 214 213 209 206 208 207 208 208 203 192 183 180 188 197 205 233 248 234 223 223 225 228 242 250 237 223 209 181 167
2 359 353 347 342 333 322 313 304 295 278 253 236 223 217 214 209 209 211 214 209 201 191 189 187 189 194 189 184 195 214 230 234 237 235 227 224 230 236 232 218 213 201 185
359 358 355 352 346 341 335 325 314 303 294 272 250 236 224 214 207 209 214 220 207 187 186 189 188 184 192 185 178 193 207 219 221 224 236 232 228 235 241 239 223 210 206 202
354 354 352 351 348 346 343 339 334 324 311 295 273 255 239 221 212 213 215 209 197 185 181 181 184 183 186 179 180 193 200 212 216 215 223 234 238 242 245 245 236 219 208 205
345 346 346 347 346 344 346 347 343 337 330 320 304 282 259 240 220 215 221 204 191 185 185 185 187 188 187 182 183 191 200 207 210 210 211 217 228 236 240 247 242 229 217 214
337 339 339 341 342 346 348 347 344 344 341 335 331 323 304 276 251 230 216 201 198 189 189 190 186 189 187 193 194 197 202 203 204 206 209 210 215 226 233 235 235 231 230 231
329 331 335 339 341 344 342 343 346 349 351 352 347 340 333 321 302 281 249 211 190 181 188 189 186 187 190 198 200 204 205 202 198 195 202 206 209 214 223 231 229 228 230 232
317 319 326 331 337 338 338 341 346 349 353 354 345 340 340 340 339 337 324 281 174 176 183 179 184 191 200 205 207 207 205 202 197 195 194 195 201 203 209 222 238 236 233 233
300 303 305 315 328 335 336 337 341 345 353 352 342 344 346 350 352 351 347 346 15 166 195 198 190 196 204 208 211 210 206 200 191 187 191 195 200 207 211 214 215 221 227 230
Height
1534 1535 1537 1538 1540 1541 1543 1541 1543 1541 1541 1540 1542 1546 1549 1550 1550 1550 1549 1548 1546 1544 1543 1540 1538 1536 1534 1532 1530 1527 1524 1521 1519 1517 1514 1512 1509 1507 1504 1502 1500 1499 1497 1496
1533 1532 1534 1535 1533 1536 1538 1539 1539 1540 1540 1537 1541 1545 1547 1548 1548 1548 1548 1547 1546 1544 1543 1540 1538 1537 1535 1533 1531 1528 1526 1523 1521 1518 1516 1513 1511 1509 1507 1504 1502 1500 1499 1497
1531 1528 1533 1533 1523 1528 1532 1532 1535 1538 1536 1536 1540 1543 1545 1546 1547 1547 1547 1547 1546 1544 1543 1541 1539 1537 1535 1533 1531 1529 1527 1524 1522 1520 1517 1515 1513 1510 1508 1506 1504 1502 1500 1499
1532 1530 1539 1529 1519 1521 1526 1527 1528 1530 1532 1535 1538 1541 1543 1545 1545 1546 1546 1546 1545 1544 1543 1541 1539 1537 1535 1533 1532 1530 1528 1526 1524 1521 1519 1517 1514 1512 1510 1508 1506 1504 1502 1500
1533 1535 1526 1525 1521 1523 1528 1527 1523 1526 1529 1534 1537 1540 1541 1542 1543 1545 1545 1545 1545 1544 1543 1541 1539 1538 1536 1535 1532 1531 1529 1527 1525 1523 1521 1518 1516 1514 1512 1510 1508 1506 1504 1502
1535 1540 1533 1525 1520 1522 1527 1528 1517 1521 1526 1531 1535 1538 1536 1538 1541 1543 1544 1544 1544 1543 1542 1541 1539 1538 1537 1535 1533 1531 1530 1529 1527 1524 1522 1520 1518 1516 1514 1512 1510 1508 1506 1504
1541 1538 1521 1520 1521 1525 1534 1526 1516 1519 1523 1528 1531 1535 1534 1535 1538 1541 1542 1542 1542 1542 1542 1540 1539 1538 1537 1535 1533 1532 1531 1529 1528 1526 1524 1521 1519 1518 1516 1514 1512 1510 1508 1506
1529 1533 1529 1521 1522 1523 1522 1518 1518 1519 1522 1525 1529 1532 1533 1535 1537 1539 1540 1541 1541 1541 1541 1540 1539 1538 1537 1535 1534 1532 1531 1530 1529 1527 1525 1523 1521 1519 1517 1515 1514 1512 1510 1508
1519 1522 1517 1517 1517 1517 1517 1517 1517 1518 1520 1523 1527 1530 1532 1534 1536 1538 1539 1540 1540 1540 1540 1539 1538 1537 1536 1535 1534 1533 1532 1531 1530 1528 1527 1525 1523 1521 1519 1517 1515 1513 1511 1509
1516 1512 1511 1512 1513 1514 1515 1516 1516 1517 1518 1521 1524 1527 1529 1532 1534 1536 1537 1538 1538 1538 1538 1538 1537 1536 1535 1534 1533 1533 1532 1531 1530 1529 1528 1526 1524 1522 1520 1518 1516 1514 1512 1511
1514 1510 1508 1507 1509 1510 1512 1513 1514 1515 1516 1518 1521 1524 1526 1529 1531 1533 1535 1536 1536 1537 1537 1537 1536 1535 1534 1533 1533 1532 1532 1531 1530 1529 1528 1527 1525 1524 1522 1520 1517 1515 1514 1512
1512 1507 1507 1507 1507 1508 1508 1509 1511 1512 1513 1515 1517 1520 1523 1525 1528 1530 1531 1533 1533 1534 1534 1534 1535 1534 1533 1532 1531 1531 1531 1531 1530 1529 1528 1527 1526 1524 1523 1521 1519 1517 1515 1513
1506 1506 1507 1507 1507 1506 1506 1506 1507 1509 1510 1512 1514 1516 1519 1521 1523 1526 1527 1529 1530 1531 1531 1532 1532 1532 1531 1530 1529 1529 1530 1530 1529 1528 1528 1527 1526 1525 1524 1522 1521 1519 1517 1516
1504 1505 1505 1505 1505 1504 1504 1504 1505 1506 1507 1509 1510 1512 1515 1517 1519 1521 1523 1525 1526 1528 1528 1529 1529 1529 1529 1528 1527 1527 1528 1528 1527 1527 1526 1526 1526 1525 1524 1523 1521 1520 1519 1517
1502 1503 1503 1502 1502 1502 1501 1501 1502 1502 1503 1505 1506 1508 1510 1512 1514 1516 1518 1520 1522 1523 1524 1525 1525 1526 1526 1525 1525 1525 1525 1525 1525 1525 1525 1525 1525 1524 1524 1523 1522 1520 1519 1518
1503 1501 1500 1500 1500 1500 1499 1499 1499 1499 1500 1500 1502 1503 1505 1507 1509 1511 1513 1515 1517 1518 1519 1520 1521 1522 1522 1522 1522 1522 1522 1522 1522 1522 1522 1523 1523 1523 1523 1522 1522 1521 1520 1518
1504 1502 1501 1499 1498 1497 1496 1496 1495 1495 1495 1496 1497 1498 1500 1502 1504 1506 1508 1509 1511 1513 1514 1516 1517 1518 1518 1518 1518 1518 1519 1519 1519 1519 1519 1520 1521 1521 1521 1521 1520 1520 1519 1518
1508 1506 1503 1500 1497 1495 1492 1491 1490 1490 1490 1490 1492 1493 1494 1495 1496 1499 1501 1504 1505 1507 1508 1510 1512 1513 1513 1514 1514 1515 1516 1516 1516 1516 1516 1517 1518 1518 1518 1519 1519 1518 1518 1517
1506 1504 1501 1498 1495 1492 1489 1487 1485 1484 1484 1484 1485 1485 1486 1488 1490 1492 1495 1497 1498 1499 1501 1504 1506 1507 1508 1509 1510 1510 1511 1512 1513 1513 1513 1514 1514 1515 1515 1515 1516 1516 1516 1515
1506 1503 1500 1496 1492 1489 1485 1482 1480 1478 1478 1478 1478 1478 1479 1480 1483 1486 1488 1489 1489 1491 1495 1498 1499 1501 1502 1503 1504 1505 1506 1507 1508 1509 1510 1510 1510 1511 1511 1512 1513 1513 1513 1513
1506 1502 1498 1494 1490 1486 1483 1479 1476 1474 1472 1472 1472 1472 1472 1474 1476 1478 1480 1481 1483 1486 1488 1491 1492 1494 1496 1498 1499 1500 1501 1502 1503 1504 1505 1506 1506 1507 1508 1508 1509 1509 1510 1510
1505 1501 1497 1493 1489 1485 1481 1477 1473 1470 1468 1467 1466 1466 1467 1467 1469 1470 1471 1474 1477 1479 1481 1483 1485 1487 1490 1491 1493 1494 1495 1496 1497 1498 1499 1500 1501 1502 1503 1504 1505 1505 1506 1506
1504 1501 1497 1493 1489 1485 1480 1475 1471 1468 1464 1462 1461 1461 1461 1462 1463 1464 1465 1467 1470 1472 1474 1475 1478 1481 1483 1485 1486 1488 1489 1490 1491 1492 1494 1495 1496 1497 1498 1499 1500 1501 1501 1502
1502 1499 1497 1493 1489 1485 1480 1475 1470 1466 1463 1459 1458 1457 1456 1456 1456 1457 1459 1461 1463 1465 1466 1468 1471 1473 1476 1478 1479 1481 1482 1483 1485 1486 1488 1489 1490 1491 1493 1494 1495 1495 1496 1497
1500 1497 1494 1491 1488 1484 1480 1476 1471 1465 1461 1457 1454 1453 1452 1452 1452 1451 1453 1454 1456 1457 1459 1462 1464 1466 1469 1470 1472 1474 1475 1477 1478 1480 1481 1483 1484 1485 1487 1488 1489 1489 1490 1491
1498 1495 1492 1490 1487 1484 1480 1476 1472 1467 1463 1458 1454 1451 1450 1448 1447 1446 1447 1448 1449 1450 1452 1454 1457 1459 1461 1462 1465 1467 1469 1471 1472 1473 1475 1476 1478 1479 1480 1481 1482 1483 1484 1485
1494 1492 1489 1487 1484 1481 1478 1475 1472 1468 1464 1460 1456 1452 1449 1447 1444 1443 1442 1443 1444 1445 1446 1448 1449 1451 1453 1455 1457 1459 1462 1464 1465 1467 1468 1470 1471 1472 1474 1475 1476 1477 1478 1479